DAL128 KTPA-KPBI

Flight info

Callsign DAL128
Flight time 1h 6m
Altitude 23000
Route GANDY8 SABEE VUUDU1
Aircraft B738/M-SDE2E3FGHIRWXY/LB1

Departure

Time 2026-05-04 20:04
Airport Tampa International Airport (KTPA)

Arrival

Time 2026-05-04 21:11
Airport Palm Beach International Airport (KPBI)
Time Latitude Longitude Altitude Speed Heading
2026-05-04 19:43 27.98133 -82.53858 42 ft 0 kts 168°
2026-05-04 19:55 27.98150 -82.53862 43 ft 4 kts 168°
2026-05-04 19:56 27.98173 -82.53868 43 ft 1 kts 168°
2026-05-04 19:56 27.98197 -82.53873 43 ft 4 kts 182°
2026-05-04 19:56 27.98208 -82.53872 43 ft 3 kts 269°
2026-05-04 19:56 27.98208 -82.53842 43 ft 4 kts 270°
2026-05-04 19:57 27.98208 -82.53826 42 ft 0 kts 270°
2026-05-04 19:59 27.98208 -82.53829 42 ft 4 kts 270°
2026-05-04 19:59 27.98196 -82.53921 42 ft 14 kts 234°
2026-05-04 19:59 27.98109 -82.53966 43 ft 14 kts 186°
2026-05-04 19:59 27.98010 -82.53971 46 ft 15 kts 182°
2026-05-04 20:00 27.97891 -82.53976 44 ft 19 kts 182°
2026-05-04 20:00 27.97754 -82.53979 42 ft 20 kts 181°
2026-05-04 20:00 27.97613 -82.53985 45 ft 20 kts 182°
2026-05-04 20:00 27.97477 -82.53991 46 ft 19 kts 182°
2026-05-04 20:01 27.97359 -82.54035 45 ft 19 kts 230°
2026-05-04 20:01 27.97243 -82.54080 47 ft 18 kts 182°
2026-05-04 20:01 27.97122 -82.54085 48 ft 17 kts 182°
2026-05-04 20:01 27.97001 -82.54090 48 ft 18 kts 182°
2026-05-04 20:02 27.96880 -82.54095 48 ft 17 kts 182°
2026-05-04 20:02 27.96763 -82.54098 48 ft 16 kts 181°
2026-05-04 20:02 27.96650 -82.54101 48 ft 16 kts 181°
2026-05-04 20:02 27.96543 -82.54105 47 ft 15 kts 182°
2026-05-04 20:03 27.96439 -82.54110 47 ft 15 kts 182°
2026-05-04 20:03 27.96351 -82.54144 46 ft 14 kts 244°
2026-05-04 20:03 27.96390 -82.54227 47 ft 13 kts 343°
2026-05-04 20:03 27.96709 -82.54223 47 ft 89 kts
2026-05-04 20:04 27.97584 -82.54192 51 ft 163 kts
2026-05-04 20:04 27.98861 -82.54149 563 ft 194 kts
2026-05-04 20:04 28.00155 -82.54390 1854 ft 184 kts 334°
2026-05-04 20:04 28.01341 -82.55078 2722 ft 201 kts 334°
2026-05-04 20:05 28.02655 -82.55870 3005 ft 228 kts 329°
2026-05-04 20:05 28.03680 -82.57307 3335 ft 253 kts 292°
2026-05-04 20:05 28.04117 -82.59274 4035 ft 258 kts 284°
2026-05-04 20:05 28.04446 -82.61273 4816 ft 259 kts 271°
2026-05-04 20:06 28.04011 -82.63247 5523 ft 266 kts 245°
2026-05-04 20:06 28.03210 -82.65185 6088 ft 280 kts 242°
2026-05-04 20:06 28.01932 -82.66852 6865 ft 283 kts 210°
2026-05-04 20:06 28.00075 -82.67463 7747 ft 281 kts 177°
2026-05-04 20:07 27.98198 -82.66911 8605 ft 281 kts 156°
2026-05-04 20:07 27.96399 -82.66038 9346 ft 287 kts 157°
2026-05-04 20:07 27.94539 -82.65154 10182 ft 289 kts 157°
2026-05-04 20:07 27.92626 -82.64256 10626 ft 308 kts 158°
2026-05-04 20:08 27.90556 -82.63295 10809 ft 333 kts 159°
2026-05-04 20:08 27.88371 -82.62288 10995 ft 355 kts 159°
2026-05-04 20:08 27.86031 -82.61216 11433 ft 367 kts 160°
2026-05-04 20:08 27.83640 -82.60123 12099 ft 371 kts 160°
2026-05-04 20:09 27.81228 -82.59022 12803 ft 375 kts 160°
2026-05-04 20:09 27.78825 -82.57927 13453 ft 379 kts 161°
2026-05-04 20:09 27.76363 -82.56807 14092 ft 383 kts 161°
2026-05-04 20:09 27.73868 -82.55673 14723 ft 387 kts 161°
2026-05-04 20:10 27.71354 -82.54531 15339 ft 391 kts 161°
2026-05-04 20:10 27.68813 -82.53376 15935 ft 395 kts 161°
2026-05-04 20:10 27.66287 -82.52229 16505 ft 399 kts 161°
2026-05-04 20:10 27.63656 -82.51035 17072 ft 402 kts 162°
2026-05-04 20:11 27.61075 -82.49865 17592 ft 406 kts 162°
2026-05-04 20:11 27.58434 -82.48668 18114 ft 410 kts 162°
2026-05-04 20:11 27.55801 -82.47378 18700 ft 413 kts 157°
2026-05-04 20:11 27.53272 -82.45896 19036 ft 419 kts 156°
2026-05-04 20:12 27.50666 -82.44307 19034 ft 428 kts 155°
2026-05-04 20:12 27.48034 -82.42688 19035 ft 429 kts 155°
2026-05-04 20:12 27.45407 -82.41079 19030 ft 427 kts 156°
2026-05-04 20:12 27.42823 -82.39512 19037 ft 426 kts 156°
2026-05-04 20:13 27.40203 -82.37934 19039 ft 426 kts 156°
2026-05-04 20:13 27.37576 -82.36359 19051 ft 431 kts 156°
2026-05-04 20:13 27.34886 -82.34751 19159 ft 442 kts 156°
2026-05-04 20:13 27.32134 -82.33105 19336 ft 451 kts 156°
2026-05-04 20:14 27.29381 -82.31454 19624 ft 456 kts 156°
2026-05-04 20:14 27.26575 -82.29767 20048 ft 456 kts 156°
2026-05-04 20:14 27.23775 -82.28083 20576 ft 455 kts 156°
2026-05-04 20:14 27.20978 -82.26401 21119 ft 453 kts 156°
2026-05-04 20:15 27.18236 -82.24755 21631 ft 452 kts 156°
2026-05-04 20:15 27.15452 -82.23085 22099 ft 452 kts 156°
2026-05-04 20:15 27.12671 -82.21420 22573 ft 452 kts 157°
2026-05-04 20:15 27.09890 -82.19751 22983 ft 452 kts 156°
2026-05-04 20:16 27.07315 -82.17713 22995 ft 466 kts 141°
2026-05-04 20:16 27.05007 -82.15134 23012 ft 467 kts 139°
2026-05-04 20:16 27.02741 -82.12527 23006 ft 463 kts 139°
2026-05-04 20:16 27.00491 -82.09945 23017 ft 463 kts 139°
2026-05-04 20:17 26.98215 -82.07369 23028 ft 463 kts 139°
2026-05-04 20:17 26.95966 -82.04852 23009 ft 457 kts 140°
2026-05-04 20:17 26.93751 -82.02387 22999 ft 439 kts 140°
2026-05-04 20:17 26.91609 -82.00014 23004 ft 428 kts 140°
2026-05-04 20:18 26.89489 -81.97675 23014 ft 426 kts 140°
2026-05-04 20:18 26.87400 -81.95371 22924 ft 428 kts 140°
2026-05-04 20:18 26.85276 -81.93027 22559 ft 426 kts 140°
2026-05-04 20:18 26.83189 -81.90679 22103 ft 425 kts 136°
2026-05-04 20:19 26.81590 -81.87898 21836 ft 425 kts 117°
2026-05-04 20:19 26.80453 -81.84870 21635 ft 418 kts 115°
2026-05-04 20:19 26.79387 -81.81880 21412 ft 419 kts 114°
2026-05-04 20:19 26.78300 -81.78819 21198 ft 425 kts 115°
2026-05-04 20:20 26.77192 -81.75733 20967 ft 426 kts 115°
2026-05-04 20:20 26.76454 -81.73698 20808 ft 424 kts 115°
2026-05-04 20:20 26.74975 -81.69661 20499 ft 419 kts 115°
2026-05-04 20:20 26.73864 -81.66652 20277 ft 416 kts 115°
2026-05-04 20:21 26.73131 -81.64674 20133 ft 414 kts 115°
2026-05-04 20:21 26.72027 -81.61696 19918 ft 412 kts 115°
2026-05-04 20:21 26.69849 -81.55824 19491 ft 410 kts 115°
2026-05-04 20:22 26.68754 -81.52878 19275 ft 408 kts 115°
2026-05-04 20:22 26.67886 -81.49856 19023 ft 412 kts 100°
2026-05-04 20:22 26.67861 -81.46643 18599 ft 418 kts 80°
2026-05-04 20:22 26.68544 -81.43474 18141 ft 416 kts 74°
2026-05-04 20:23 26.69313 -81.40385 17615 ft 408 kts 73°
2026-05-04 20:23 26.70076 -81.37351 17110 ft 401 kts 74°
2026-05-04 20:23 26.70635 -81.35085 16735 ft 395 kts 74°
2026-05-04 20:42 26.70966 -81.33721 16518 ft 392 kts 75°
2026-05-04 20:42 26.71661 -81.30799 16046 ft 385 kts 75°
2026-05-04 20:43 26.72337 -81.27918 15586 ft 380 kts 75°
2026-05-04 20:43 26.73005 -81.25060 15137 ft 381 kts 75°
2026-05-04 20:43 26.73666 -81.22226 14752 ft 382 kts 75°
2026-05-04 20:43 26.74340 -81.19339 14391 ft 384 kts 75°
2026-05-04 20:44 26.75012 -81.16453 14019 ft 383 kts 75°
2026-05-04 20:44 26.75681 -81.13576 13648 ft 381 kts 75°
2026-05-04 20:44 26.76345 -81.10720 13277 ft 377 kts 75°
2026-05-04 20:44 26.77001 -81.07902 12913 ft 372 kts 75°
2026-05-04 20:45 26.77648 -81.05114 12554 ft 368 kts 75°
2026-05-04 20:45 26.78287 -81.02358 12201 ft 364 kts 75°
2026-05-04 20:45 26.78822 -80.99615 11844 ft 360 kts 83°
2026-05-04 20:45 26.79011 -80.96841 11512 ft 355 kts 89°
2026-05-04 20:46 26.79075 -80.94097 11173 ft 351 kts 90°
2026-05-04 20:46 26.79128 -80.91381 10833 ft 347 kts 89°
2026-05-04 20:46 26.79207 -80.88695 10505 ft 343 kts 88°
2026-05-04 20:46 26.79309 -80.86040 10174 ft 340 kts 88°
2026-05-04 20:47 26.79421 -80.83422 9905 ft 333 kts 88°
2026-05-04 20:47 26.79531 -80.80888 9912 ft 320 kts 88°
2026-05-04 20:47 26.79628 -80.78447 9887 ft 309 kts 88°
2026-05-04 20:47 26.79619 -80.76086 9807 ft 299 kts 101°
2026-05-04 20:48 26.79021 -80.73901 9669 ft 290 kts 112°
2026-05-04 20:48 26.78305 -80.71796 9357 ft 289 kts 112°
2026-05-04 20:48 26.77578 -80.69701 9054 ft 289 kts 112°
2026-05-04 20:48 26.76863 -80.67611 8775 ft 286 kts 112°
2026-05-04 20:49 26.76165 -80.65530 8537 ft 284 kts 111°
2026-05-04 20:49 26.75685 -80.64089 8355 ft 283 kts 111°
2026-05-04 21:02 26.75530 -80.63624 8290 ft 282 kts 111°
2026-05-04 21:02 26.74855 -80.61599 8012 ft 281 kts 111°
2026-05-04 21:02 26.74166 -80.59530 7741 ft 279 kts 111°
2026-05-04 21:02 26.73490 -80.57533 7471 ft 277 kts 111°
2026-05-04 21:03 26.72789 -80.55530 7230 ft 275 kts 112°
2026-05-04 21:03 26.72095 -80.53553 6956 ft 273 kts 111°
2026-05-04 21:03 26.71403 -80.51577 6686 ft 271 kts 111°
2026-05-04 21:03 26.70717 -80.49619 6416 ft 270 kts 111°
2026-05-04 21:04 26.70071 -80.47654 6142 ft 268 kts 103°
2026-05-04 21:04 26.69832 -80.45598 5887 ft 266 kts 93°
2026-05-04 21:04 26.69764 -80.43740 5630 ft 264 kts 91°
2026-05-04 21:04 26.69696 -80.41689 5366 ft 263 kts 92°
2026-05-04 21:05 26.69611 -80.39692 5083 ft 250 kts 92°
2026-05-04 21:05 26.69525 -80.37811 4750 ft 235 kts 92°
2026-05-04 21:05 26.69442 -80.36032 4443 ft 224 kts 92°
2026-05-04 21:05 26.69364 -80.34318 4160 ft 218 kts 91°
2026-05-04 21:06 26.69289 -80.32670 3885 ft 206 kts 91°
2026-05-04 21:06 26.69219 -80.31111 3607 ft 195 kts 91°
2026-05-04 21:06 26.69153 -80.29630 3365 ft 188 kts 91°
2026-05-04 21:06 26.69088 -80.28199 3123 ft 179 kts 91°
2026-05-04 21:07 26.69027 -80.26846 2888 ft 170 kts 90°
2026-05-04 21:07 26.68970 -80.25540 2674 ft 167 kts 90°
2026-05-04 21:07 26.68913 -80.24282 2444 ft 159 kts 89°
2026-05-04 21:07 26.68859 -80.23065 2243 ft 156 kts 89°
2026-05-04 21:08 26.68806 -80.21860 2049 ft 154 kts 89°
2026-05-04 21:08 26.68753 -80.20693 1833 ft 148 kts 89°
2026-05-04 21:08 26.68705 -80.19568 1645 ft 144 kts 89°
2026-05-04 21:08 26.68657 -80.18450 1463 ft 145 kts 89°
2026-05-04 21:09 26.68608 -80.17329 1272 ft 144 kts 88°
2026-05-04 21:09 26.68558 -80.16229 1087 ft 140 kts 88°
2026-05-04 21:09 26.68512 -80.15171 931 ft 134 kts 88°
2026-05-04 21:09 26.68466 -80.14108 716 ft 137 kts 88°
2026-05-04 21:10 26.68420 -80.13057 534 ft 133 kts 88°
2026-05-04 21:10 26.68376 -80.12049 374 ft 127 kts 90°
2026-05-04 21:10 26.68333 -80.11058 204 ft 129 kts 91°
2026-05-04 21:10 26.68286 -80.10066 35 ft 122 kts 89°
2026-05-04 21:11 26.68270 -80.09483 25 ft 105 kts 91°
2026-05-04 21:11 26.68245 -80.08974 25 ft 27 kts 94°
2026-05-04 21:11 26.68334 -80.08879 25 ft 20 kts 306°
2026-05-04 21:11 26.68353 -80.09027 25 ft 19 kts 281°
2026-05-04 21:12 26.68453 -80.09074 25 ft 19 kts 44°
2026-05-04 21:12 26.68531 -80.09056 25 ft 12 kts 353°
2026-05-04 21:12 26.68601 -80.09068 25 ft 6 kts 351°
2026-05-04 21:12 26.68636 -80.09055 25 ft 6 kts 49°
2026-05-04 21:13 26.68642 -80.09013 25 ft 5 kts 91°
2026-05-04 21:13 26.68641 -80.08994 25 ft 0 kts 92°